Location: Ar Ranvel
(48.3000°N, 4.8833°W)
Time: 14:18:01
(UTC+00:00)

ISS - Pass Details

Date: 29 September 2021
Orbit: 418 x 423 km, 51.6° (Epoch: 19 October)

Event Time Altitude Azimuth Distance (km) Brightness Sun altitude
Rises 19:46:59 0° 291° (WNW) 2,367 1.8 -18.0°
Reaches altitude 10° 19:49:05 10° 292° (WNW) 1,502 0.3 -18.4°
Maximum altitude 19:52:27 85° 19° (NNE) 426 -3.9 -18.9°
Enters shadow 19:52:45 73° 96° (E) 443 -3.9 -18.9°
